sat.trackr.live / text

‹ back to catalog

STARLINK-5668

NORAD 55350 · 2023-013V

PAYLOAD ACTIVE UNKNOWN

§ Identity

Operator
Country
US
Launch date
2023-01-26
Launch site
AFETR
Launch vehicle
Mass (kg)
RCS (m²)

Purposes: comms

External: N2YO · Heavens-Above · Gunter

§ Orbital elements

Epoch: 2026-09-20T09:10:27.429888Z

Period
94.27 min
Inclination
43.0050°
Eccentricity
0.0001660
Mean motion
15.27577418 rev/d
Perigee alt
481.9 km
Apogee alt
484.2 km
Semi-major
6,861.2 km
B*
1.0880e-5
RAAN
283.4976°
Arg perigee
290.4173°
Mean anomaly
69.6500°
Rev number
20,145

§ Raw data

STARLINK-56681 55350U 23013V   26263.38226192  .00000037  00000+0  10880-4 0  99992 55350  43.0050 283.4976 0001660 290.4173  69.6500 15.27577418201455

JSON: /api/v1/satellites/55350 · /tle

For live sub-satellite position, see the globe view (requires WebGL).

§ Visibility from observer

Set your observer location to see the next 7 days of passes ≥ 10°. The values pass through the URL so the page stays shareable.

No JS? Fill the form by hand. The geolocation button needs JavaScript.